Time,TemperatureF,DewpointF,PressureIn,WindDirection,WindDirectionDegrees,WindSpeedMPH,WindSpeedGustMPH,Humidity,HourlyPrecipIn,Conditions,Clouds,dailyrainin,SoftwareType,DateUTC
2013-04-25 00:15:00,52.5,44.8,29.83,SW,227,3.1,15.4,75,0.00,,---,0.00,VWS V13.00,2013-04-25 04:15:00,
2013-04-25 00:30:00,52.9,45.5,29.83,South,186,6.3,8.7,76,0.00,,---,0.00,VWS V13.00,2013-04-25 04:30:00,
2013-04-25 00:44:00,53.1,45.7,29.83,SW,222,4.5,11.0,76,0.00,,---,0.00,VWS V13.00,2013-04-25 04:44:00,
2013-04-25 01:00:00,53.2,46.2,29.83,SW,232,8.3,14.5,77,0.00,,---,0.00,VWS V13.00,2013-04-25 05:00:00,
2013-04-25 01:30:00,53.4,47.1,29.83,South,174,8.3,13.2,79,0.00,,---,0.00,VWS V13.00,2013-04-25 05:30:00,
2013-04-25 01:44:00,53.2,47.2,29.83,South,169,6.3,15.0,80,0.00,,---,0.00,VWS V13.00,2013-04-25 05:44:00,
2013-04-25 02:00:00,53.2,47.6,29.83,SW,221,5.8,12.8,81,0.00,,---,0.00,VWS V13.00,2013-04-25 06:00:00,
2013-04-25 02:14:00,53.1,47.4,29.83,SSW,202,5.8,13.2,81,0.00,,---,0.00,VWS V13.00,2013-04-25 06:14:00,
2013-04-25 02:29:00,53.1,47.7,29.86,SW,219,6.3,11.0,82,0.00,,---,0.00,VWS V13.00,2013-04-25 06:29:00,
2013-04-25 02:44:00,52.9,48.2,29.86,South,179,5.8,10.5,84,0.00,,---,0.00,VWS V13.00,2013-04-25 06:44:00,
2013-04-25 03:00:00,52.7,48.6,29.86,SW,226,5.8,8.3,86,0.00,,---,0.00,VWS V13.00,2013-04-25 07:00:00,
2013-04-25 03:15:00,52.5,49.1,29.86,South,179,0.0,7.6,88,0.10,,---,0.10,VWS V13.00,2013-04-25 07:15:00,
2013-04-25 03:29:00,52.5,49.4,29.89,NW,317,0.0,7.6,89,0.10,,---,0.10,VWS V13.00,2013-04-25 07:29:00,
2013-04-25 03:45:00,52.5,49.7,29.89,SW,222,0.0,6.3,90,0.15,,---,0.15,VWS V13.00,2013-04-25 07:45:00,
2013-04-25 04:00:00,52.5,49.7,29.89,North,9,5.4,8.1,90,0.15,,---,0.15,VWS V13.00,2013-04-25 08:00:00,
2013-04-25 04:14:00,52.0,48.2,29.92,North,353,4.9,12.3,87,0.15,,---,0.15,VWS V13.00,2013-04-25 08:14:00,
2013-04-25 04:29:00,50.5,44.3,29.95,North,357,15.4,15.4,79,0.05,,---,0.15,VWS V13.00,2013-04-25 08:29:00,
2013-04-25 04:45:00,49.5,40.5,29.95,NNW,339,14.5,17.4,71,0.05,,---,0.15,VWS V13.00,2013-04-25 08:45:00,
2013-04-25 05:00:00,48.7,38.3,29.98,NNW,346,4.9,15.4,67,0.00,,---,0.15,VWS V13.00,2013-04-25 09:00:00,
2013-04-25 05:15:00,48.4,35.6,29.98,NNW,334,8.3,19.7,61,0.00,,---,0.15,VWS V13.00,2013-04-25 09:15:00,
2013-04-25 05:30:00,47.7,34.5,29.98,NNE,14,8.1,13.2,60,0.00,,---,0.15,VWS V13.00,2013-04-25 09:30:00,
2013-04-25 05:44:00,47.5,33.9,30.01,NNE,16,5.8,15.9,59,0.00,,---,0.15,VWS V13.00,2013-04-25 09:44:00,
2013-04-25 06:00:00,47.1,32.2,30.01,NW,323,8.3,17.4,56,0.00,,---,0.15,VWS V13.00,2013-04-25 10:00:00,
2013-04-25 06:14:00,46.9,31.2,30.04,NW,324,7.2,17.0,54,0.00,,---,0.15,VWS V13.00,2013-04-25 10:14:00,
2013-04-25 06:29:00,46.4,30.7,30.04,NNW,333,4.0,15.0,54,0.00,,---,0.15,VWS V13.00,2013-04-25 10:29:00,
2013-04-25 06:45:00,46.2,30.5,30.04,NW,316,9.6,12.3,54,0.00,,---,0.15,VWS V13.00,2013-04-25 10:45:00,
2013-04-25 06:59:00,46.4,30.7,30.04,North,0,4.9,11.0,54,0.00,,---,0.15,VWS V13.00,2013-04-25 10:59:00,
2013-04-25 07:14:00,46.6,30.8,30.07,North,0,3.1,8.1,54,0.00,,---,0.15,VWS V13.00,2013-04-25 11:14:00,
2013-04-25 07:30:00,46.6,30.4,30.07,NNW,327,10.5,13.2,53,0.00,,---,0.15,VWS V13.00,2013-04-25 11:30:00,
2013-04-25 07:45:00,46.4,28.8,30.07,NNE,18,8.3,15.0,50,0.00,,---,0.15,VWS V13.00,2013-04-25 11:45:00,
2013-04-25 07:59:00,46.4,28.8,30.10,NW,316,4.9,13.2,50,0.00,,---,0.15,VWS V13.00,2013-04-25 11:59:00,
2013-04-25 08:15:00,46.8,29.1,30.10,NNW,337,7.6,12.3,50,0.00,,---,0.15,VWS V13.00,2013-04-25 12:15:00,
2013-04-25 08:30:00,47.5,29.3,30.10,NNE,25,4.0,11.0,49,0.00,,---,0.15,VWS V13.00,2013-04-25 12:30:00,
2013-04-25 08:44:00,47.5,28.8,30.10,North,357,8.7,15.0,48,0.00,,---,0.15,VWS V13.00,2013-04-25 12:44:00,
2013-04-25 08:59:00,47.8,28.6,30.10,NNW,327,8.1,17.9,47,0.00,,---,0.15,VWS V13.00,2013-04-25 12:59:00,
2013-04-25 10:00:00,49.8,28.2,30.13,NW,311,8.1,11.0,43,0.00,,---,0.15,VWS V13.00,2013-04-25 14:00:00,
2013-04-25 10:15:00,50.7,27.9,30.13,North,5,5.4,14.5,41,0.00,,---,0.15,VWS V13.00,2013-04-25 14:15:00,
2013-04-25 10:29:00,51.1,27.6,30.13,North,353,8.3,15.4,40,0.00,,---,0.15,VWS V13.00,2013-04-25 14:29:00,
2013-04-25 10:45:00,51.8,27.6,30.13,North,357,6.3,15.0,39,0.00,,---,0.15,VWS V13.00,2013-04-25 14:45:00,
2013-04-25 11:00:00,52.5,28.3,30.13,NNW,344,5.8,15.4,39,0.00,,---,0.15,VWS V13.00,2013-04-25 15:00:00,
2013-04-25 11:14:00,53.1,28.1,30.13,North,5,8.3,17.4,38,0.00,,---,0.15,VWS V13.00,2013-04-25 15:14:00,
2013-04-25 11:30:00,53.4,28.5,30.13,North,0,8.1,15.0,38,0.00,,---,0.15,VWS V13.00,2013-04-25 15:30:00,
2013-04-25 11:45:00,54.3,28.6,30.13,NNW,332,8.3,15.0,37,0.00,,---,0.15,VWS V13.00,2013-04-25 15:45:00,
2013-04-25 12:00:00,55.0,29.3,30.13,NW,305,5.4,12.8,37,0.00,,---,0.15,VWS V13.00,2013-04-25 16:00:00,
2013-04-25 12:14:00,55.2,28.8,30.13,NE,49,3.6,13.6,36,0.00,,---,0.15,VWS V13.00,2013-04-25 16:14:00,
2013-04-25 12:30:00,55.8,29.2,30.13,North,349,7.6,15.0,36,0.00,,---,0.15,VWS V13.00,2013-04-25 16:30:00,
2013-04-25 12:45:00,56.7,30.0,30.13,NNW,329,10.1,12.8,36,0.00,,---,0.15,VWS V13.00,2013-04-25 16:45:00,
2013-04-25 13:00:00,57.9,30.5,30.16,North,0,4.9,11.0,35,0.00,,---,0.15,VWS V13.00,2013-04-25 17:00:00,
2013-04-25 13:15:00,57.6,30.1,30.16,NW,321,5.4,15.4,35,0.00,,---,0.15,VWS V13.00,2013-04-25 17:15:00,
2013-04-25 13:30:00,58.1,30.6,30.13,North,357,10.1,11.0,35,0.00,,---,0.15,VWS V13.00,2013-04-25 17:30:00,
2013-04-25 13:45:00,58.1,29.9,30.16,North,357,5.8,12.8,34,0.00,,---,0.15,VWS V13.00,2013-04-25 17:45:00,
2013-04-25 14:00:00,59.0,30.0,30.13,NW,321,2.7,11.0,33,0.00,,---,0.15,VWS V13.00,2013-04-25 18:00:00,
2013-04-25 14:14:00,59.5,30.4,30.13,West,280,6.3,13.2,33,0.00,,---,0.15,VWS V13.00,2013-04-25 18:14:00,
2013-04-25 14:30:00,60.1,29.4,30.13,NNW,344,3.6,10.5,31,0.00,,---,0.15,VWS V13.00,2013-04-25 18:30:00,
2013-04-25 14:45:00,60.4,28.9,30.13,South,170,3.1,17.0,30,0.00,,---,0.15,VWS V13.00,2013-04-25 18:45:00,
2013-04-25 14:59:00,61.3,28.8,30.13,North,8,2.2,11.0,29,0.00,,---,0.15,VWS V13.00,2013-04-25 18:59:00,
2013-04-25 15:14:00,62.2,28.8,30.13,NNW,346,6.3,9.2,28,0.00,,---,0.15,VWS V13.00,2013-04-25 19:14:00,
2013-04-25 15:29:00,61.5,27.2,30.13,NW,311,4.9,11.4,27,0.00,,---,0.15,VWS V13.00,2013-04-25 19:29:00,
2013-04-25 15:44:00,62.6,28.2,30.13,NW,314,5.4,15.4,27,0.00,,---,0.15,VWS V13.00,2013-04-25 19:44:00,
2013-04-25 15:59:00,62.8,27.4,30.13,SW,220,4.0,13.2,26,0.00,,---,0.15,VWS V13.00,2013-04-25 19:59:00,
2013-04-25 16:15:00,64.4,28.8,30.13,WSW,257,3.6,11.0,26,0.00,,---,0.15,VWS V13.00,2013-04-25 20:15:00,
2013-04-25 16:30:00,64.2,28.6,30.13,NW,305,5.4,8.1,26,0.00,,---,0.15,VWS V13.00,2013-04-25 20:30:00,
2013-04-25 16:44:00,63.9,27.4,30.13,NNW,338,3.1,9.6,25,0.00,,---,0.15,VWS V13.00,2013-04-25 20:44:00,
2013-04-25 17:00:00,64.6,28.0,30.13,SW,224,0.0,8.3,25,0.00,,---,0.15,VWS V13.00,2013-04-25 21:00:00,
2013-04-25 17:15:00,63.7,27.2,30.13,North,3,9.2,9.2,25,0.00,,---,0.15,VWS V13.00,2013-04-25 21:15:00,
2013-04-25 17:30:00,62.8,25.5,30.16,NNW,341,3.1,9.2,24,0.00,,---,0.15,VWS V13.00,2013-04-25 21:30:00,
2013-04-25 17:45:00,63.1,25.8,30.16,West,261,3.1,10.1,24,0.00,,---,0.15,VWS V13.00,2013-04-25 21:45:00,
2013-04-25 18:00:00,63.1,25.8,30.16,North,7,4.9,6.3,24,0.00,,---,0.15,VWS V13.00,2013-04-25 22:00:00,
2013-04-25 18:15:00,62.2,25.0,30.16,North,0,3.6,8.7,24,0.00,,---,0.15,VWS V13.00,2013-04-25 22:15:00,
2013-04-25 18:29:00,60.3,24.3,30.16,West,270,0.0,8.1,25,0.00,,---,0.15,VWS V13.00,2013-04-25 22:29:00,
2013-04-25 18:44:00,59.2,23.4,30.16,NNE,21,2.2,8.3,25,0.00,,---,0.15,VWS V13.00,2013-04-25 22:44:00,
2013-04-25 19:00:00,58.3,22.6,30.19,North,0,4.9,7.6,25,0.00,,---,0.15,VWS V13.00,2013-04-25 23:00:00,
2013-04-25 19:14:00,57.6,22.0,30.19,NNW,338,3.6,8.7,25,0.00,,---,0.15,VWS V13.00,2013-04-25 23:14:00,
2013-04-25 19:30:00,56.7,21.3,30.19,NW,316,0.0,5.8,25,0.00,,---,0.15,VWS V13.00,2013-04-25 23:30:00,
2013-04-25 19:45:00,55.8,21.4,30.19,NW,304,0.0,0.0,26,0.00,,---,0.15,VWS V13.00,2013-04-25 23:45:00,
2013-04-25 20:00:00,53.8,19.7,30.19,NW,307,0.0,0.0,26,0.00,,---,0.15,VWS V13.00,2013-04-26 00:00:00,
2013-04-25 20:14:00,52.2,20.1,30.19,NW,307,0.0,0.0,28,0.00,,---,0.15,VWS V13.00,2013-04-26 00:14:00,
2013-04-25 20:30:00,50.0,19.0,30.22,NW,307,0.0,0.0,29,0.00,,---,0.15,VWS V13.00,2013-04-26 00:30:00,
2013-04-25 20:44:00,48.2,20.5,30.22,NW,307,0.0,0.0,33,0.00,,---,0.15,VWS V13.00,2013-04-26 00:44:00,
2013-04-25 20:59:00,46.4,21.6,30.22,NW,307,0.0,0.0,37,0.00,,---,0.15,VWS V13.00,2013-04-26 00:59:00,
2013-04-25 21:15:00,44.6,20.6,30.22,NW,307,0.0,0.0,38,0.00,,---,0.15,VWS V13.00,2013-04-26 01:15:00,
2013-04-25 21:30:00,44.1,20.7,30.22,NW,307,0.0,0.0,39,0.00,,---,0.15,VWS V13.00,2013-04-26 01:30:00,
2013-04-25 21:45:00,43.0,21.5,30.24,NW,307,0.0,0.0,42,0.00,,---,0.15,VWS V13.00,2013-04-26 01:45:00,
2013-04-25 21:59:00,42.4,22.6,30.24,NW,307,0.0,0.0,45,0.00,,---,0.15,VWS V13.00,2013-04-26 01:59:00,
2013-04-25 22:14:00,41.0,22.8,30.24,NW,307,0.0,0.0,48,0.00,,---,0.15,VWS V13.00,2013-04-26 02:14:00,
2013-04-25 22:30:00,40.6,23.5,30.24,NW,307,0.0,0.0,50,0.00,,---,0.15,VWS V13.00,2013-04-26 02:30:00,
2013-04-25 22:44:00,39.6,22.0,30.24,NW,307,0.0,0.0,49,0.00,,---,0.15,VWS V13.00,2013-04-26 02:44:00,
2013-04-25 22:59:00,38.8,21.3,30.24,NW,307,0.0,0.0,49,0.00,,---,0.15,VWS V13.00,2013-04-26 02:59:00,
2013-04-25 23:15:00,38.5,21.5,30.24,NW,307,0.0,0.0,50,0.00,,---,0.15,VWS V13.00,2013-04-26 03:15:00,
2013-04-25 23:30:00,38.1,22.5,30.24,NW,307,0.0,0.0,53,0.00,,---,0.15,VWS V13.00,2013-04-26 03:30:00,
2013-04-25 23:44:00,37.6,22.5,30.27,NW,307,0.0,0.0,54,0.00,,---,0.15,VWS V13.00,2013-04-26 03:44:00,